Arctic Village, AK

1:11 AM AKDT on May 30, 2017 (GMT -0800)
Arctic Village

Weather History for PARC - August, 2013

Change the Weather History Date:

Sunday, August 4, 2013

  Actual Average Record
Temperature  
Mean Temperature 58 °F -  
Max Temperature 64 °F 62 °F 75 °F (1999)
Min Temperature 53 °F 40 °F 29 °F (1971)
Degree Days  
Heating Degree Days 6    
Growing Degree Days 8 (Base 50)    
Moisture  
Dew Point 45 °F    
Average Humidity 58    
Maximum Humidity 77    
Minimum Humidity 45    
Precipitation  
Precipitation 0.00 in - - ()
Sea Level Pressure  
Sea Level Pressure 29.76 in    
Wind  
Wind Speed 8 mph (SW)    
Max Wind Speed 21 mph    
Max Gust Speed 30 mph    
Visibility 10 miles    
Events      
Averages and records for this station are not official NWS values.
T = Trace of Precipitation, MM = Missing Value Source: NWS Daily Summary

Daily Weather History Graph

Daily Weather History Graph

Search for Another Location

Airport or City:

Trip Planner

Search our weather history database for the weather conditions in past years. The results will help you decide how hot, cold, wet, or windy it might be!

Date:

Astronomy

Aug. 04, 2013 Rise Set
Actual Time 4:13 AM AKDT 11:19 PM AKDT
Civil Twilight 2:20 AM AKDT 1:15 AM AKDT
Nautical Twilight Sun does not set Sun does not set
Astronomical Twilight Sun does not set Sun does not set
Moon 2:12 AM AKDT (8/4) 9:37 PM AKDT (8/4)
Length of Visible Light 22h 55m
Length of Day
19h 06m
Waning Crescent, 4% of the Moon is Illuminated
Aug 4
Waning Crescent
Aug 6
New
Aug 14
First Quarter
Aug 20
Full
Aug 28
Last Quarter

Hourly Weather History & Observations

Time (AKDT) Temp. Dew Point Humidity Pressure Visibility Wind Dir Wind Speed Gust Speed Precip Events Conditions
12:16 AM 62.6 °F 42.8 °F 48% 29.69 in 10.0 mi SW 5.8 mph - N/A   Mostly Cloudy
12:36 AM 60.8 °F 42.8 °F 52% 29.69 in 10.0 mi SW 4.6 mph - N/A   Partly Cloudy
12:56 AM 60.8 °F 50.0 °F 68% 29.69 in 10.0 mi SSE 3.5 mph - N/A   Mostly Cloudy
1:16 AM 60.8 °F 46.4 °F 59% 29.69 in 10.0 mi SE 3.5 mph - N/A   Overcast
1:36 AM 57.2 °F 44.6 °F 63% 29.70 in 10.0 mi South 3.5 mph - N/A   Mostly Cloudy
1:56 AM 59.0 °F 44.6 °F 59% 29.70 in 10.0 mi South 3.5 mph - N/A   Mostly Cloudy
2:16 AM 59.0 °F 44.6 °F 59% 29.69 in 10.0 mi WSW 5.8 mph - N/A   Overcast
2:36 AM 57.2 °F 46.4 °F 67% 29.70 in 10.0 mi SSW 5.8 mph - N/A   Overcast
2:56 AM 55.4 °F 46.4 °F 72% 29.70 in 10.0 mi South 4.6 mph - N/A   Overcast
3:16 AM 55.4 °F 46.4 °F 72% 29.70 in 10.0 mi South 5.8 mph - N/A   Mostly Cloudy
3:36 AM 55.4 °F 46.4 °F 72% 29.71 in 10.0 mi SSW 3.5 mph - N/A   Scattered Clouds
3:56 AM 57.2 °F 44.6 °F 63% 29.71 in 10.0 mi South 4.6 mph - N/A   Overcast
4:16 AM 57.2 °F 46.4 °F 67% 29.70 in 10.0 mi SSW 3.5 mph - N/A   Overcast
4:36 AM 57.2 °F 48.2 °F 72% 29.70 in 10.0 mi Calm Calm - N/A   Overcast
4:56 AM 55.4 °F 48.2 °F 77% 29.71 in 10.0 mi SSW 5.8 mph - N/A   Overcast
5:16 AM 57.2 °F 46.4 °F 67% 29.71 in 10.0 mi South 5.8 mph - N/A   Overcast
5:36 AM 57.2 °F 46.4 °F 67% 29.70 in 10.0 mi SW 3.5 mph - N/A   Overcast
5:56 AM 57.2 °F 48.2 °F 72% 29.69 in 10.0 mi South 4.6 mph - N/A   Overcast
6:16 AM 57.2 °F 48.2 °F 72% 29.69 in 10.0 mi SSE 6.9 mph - N/A   Overcast
6:36 AM 55.4 °F 46.4 °F 72% 29.70 in 10.0 mi WNW 3.5 mph - N/A   Mostly Cloudy
6:56 AM 53.6 °F 46.4 °F 77% 29.70 in 10.0 mi NW 3.5 mph - N/A   Scattered Clouds
7:16 AM 55.4 °F 48.2 °F 77% 29.71 in 10.0 mi WSW 4.6 mph - N/A   Scattered Clouds
7:36 AM 57.2 °F 48.2 °F 72% 29.72 in 10.0 mi SW 5.8 mph - N/A   Overcast
7:56 AM 57.2 °F 48.2 °F 72% 29.72 in 10.0 mi South 3.5 mph - N/A   Mostly Cloudy
8:16 AM 57.2 °F 48.2 °F 72% 29.72 in 10.0 mi SSW 4.6 mph - N/A   Overcast
8:36 AM 59.0 °F 46.4 °F 63% 29.72 in 10.0 mi SW 4.6 mph - N/A   Mostly Cloudy
8:56 AM 60.8 °F 46.4 °F 59% 29.73 in 10.0 mi WSW 10.4 mph - N/A   Clear
9:16 AM 60.8 °F 46.4 °F 59% 29.74 in 10.0 mi SW 9.2 mph - N/A   Clear
9:36 AM 60.8 °F 46.4 °F 59% 29.74 in 10.0 mi WSW 12.7 mph - N/A   Clear
9:56 AM 60.8 °F 46.4 °F 59% 29.74 in 10.0 mi WSW 12.7 mph - N/A   Clear
10:16 AM 60.8 °F 44.6 °F 55% 29.75 in 10.0 mi SW 13.8 mph 17.3 mph N/A   Clear
10:36 AM 60.8 °F 44.6 °F 55% 29.75 in 10.0 mi SW 15.0 mph - N/A   Clear
10:56 AM 60.8 °F 46.4 °F 59% 29.75 in 10.0 mi SW 16.1 mph 21.9 mph N/A   Clear
11:16 AM 62.6 °F 44.6 °F 52% 29.75 in 10.0 mi SW 17.3 mph 21.9 mph N/A   Clear
11:36 AM 62.6 °F 44.6 °F 52% 29.75 in 10.0 mi SW 17.3 mph - N/A   Partly Cloudy
11:56 AM 62.6 °F 44.6 °F 52% 29.75 in 10.0 mi SW 15.0 mph 23.0 mph N/A   Clear
12:16 PM 62.6 °F 44.6 °F 52% 29.76 in 10.0 mi SW 15.0 mph 23.0 mph N/A   Clear
12:36 PM 64.4 °F 44.6 °F 49% 29.77 in 10.0 mi SW 18.4 mph 25.3 mph N/A   Clear
12:56 PM 64.4 °F 42.8 °F 45% 29.77 in 10.0 mi SW 20.7 mph 25.3 mph N/A   Scattered Clouds
1:16 PM 64.4 °F 44.6 °F 49% 29.77 in 10.0 mi SW 20.7 mph 27.6 mph N/A   Partly Cloudy
1:36 PM 64.4 °F 42.8 °F 45% 29.78 in 10.0 mi SW 18.4 mph 25.3 mph N/A   Clear
1:56 PM 60.8 °F 42.8 °F 52% 29.79 in 10.0 mi SW 16.1 mph 26.5 mph N/A   Clear
2:16 PM 62.6 °F 42.8 °F 48% 29.79 in 10.0 mi SW 17.3 mph 24.2 mph N/A   Scattered Clouds
2:36 PM 64.4 °F 42.8 °F 45% 29.79 in 10.0 mi SW 20.7 mph 28.8 mph N/A   Partly Cloudy
2:56 PM 64.4 °F 42.8 °F 45% 29.79 in 10.0 mi SW 18.4 mph 29.9 mph N/A   Partly Cloudy
3:16 PM 64.4 °F 42.8 °F 45% 29.79 in 10.0 mi SW 20.7 mph 28.8 mph N/A   Scattered Clouds
3:36 PM 64.4 °F 42.8 °F 45% 29.79 in 10.0 mi WSW 20.7 mph 27.6 mph N/A   Partly Cloudy
3:56 PM 62.6 °F 42.8 °F 48% 29.80 in 10.0 mi SW 20.7 mph 26.5 mph N/A   Clear
4:16 PM 62.6 °F 41.0 °F 45% 29.80 in 10.0 mi SW 17.3 mph 27.6 mph N/A   Mostly Cloudy
4:36 PM 62.6 °F 42.8 °F 48% 29.80 in 10.0 mi SW 15.0 mph 26.5 mph N/A   Overcast
4:56 PM 64.4 °F 42.8 °F 45% 29.81 in 10.0 mi SW 17.3 mph 25.3 mph N/A   Mostly Cloudy
5:16 PM 62.6 °F 42.8 °F 48% 29.81 in 10.0 mi WSW 18.4 mph 26.5 mph N/A   Clear
5:36 PM 62.6 °F 42.8 °F 48% 29.81 in 10.0 mi SW 12.7 mph 19.6 mph N/A   Clear
5:56 PM 62.6 °F 41.0 °F 45% 29.81 in 10.0 mi WSW 17.3 mph 24.2 mph N/A   Clear
6:16 PM 62.6 °F 42.8 °F 48% 29.81 in 10.0 mi SW 15.0 mph 23.0 mph N/A   Clear
6:36 PM 62.6 °F 42.8 °F 48% 29.81 in 10.0 mi SW 11.5 mph - N/A   Scattered Clouds
6:56 PM 62.6 °F 42.8 °F 48% 29.81 in 10.0 mi SW 15.0 mph 19.6 mph N/A   Mostly Cloudy
7:16 PM 60.8 °F 42.8 °F 52% 29.82 in 10.0 mi SW 9.2 mph - N/A   Mostly Cloudy
7:36 PM 62.6 °F 42.8 °F 48% 29.82 in 10.0 mi SW 11.5 mph 16.1 mph N/A   Overcast
7:56 PM 60.8 °F 42.8 °F 52% 29.82 in 10.0 mi SW 11.5 mph - N/A   Overcast
8:16 PM 60.8 °F 42.8 °F 52% 29.82 in 10.0 mi SW 9.2 mph 19.6 mph N/A   Partly Cloudy
8:36 PM 60.8 °F 44.6 °F 55% 29.82 in 10.0 mi SW 10.4 mph 16.1 mph N/A   Clear
8:56 PM 60.8 °F 44.6 °F 55% 29.82 in 10.0 mi SW 11.5 mph - N/A   Partly Cloudy
9:16 PM 60.8 °F 42.8 °F 52% 29.82 in 10.0 mi SSW 9.2 mph - N/A   Partly Cloudy
9:36 PM 60.8 °F 44.6 °F 55% 29.82 in 10.0 mi SW 11.5 mph 19.6 mph N/A   Clear
9:56 PM 60.8 °F 44.6 °F 55% 29.82 in 10.0 mi SW 10.4 mph - N/A   Clear
10:16 PM 59.0 °F 44.6 °F 59% 29.83 in 10.0 mi SW 11.5 mph 18.4 mph N/A   Clear
10:36 PM 57.2 °F 44.6 °F 63% 29.83 in 10.0 mi SW 8.1 mph - N/A   Clear
10:56 PM 57.2 °F 44.6 °F 63% 29.84 in 10.0 mi Calm Calm - N/A   Scattered Clouds
11:16 PM 55.4 °F 44.6 °F 67% 29.85 in 10.0 mi West 4.6 mph - N/A   Mostly Cloudy
11:36 PM 55.4 °F 44.6 °F 67% 29.85 in 10.0 mi Calm Calm - N/A   Mostly Cloudy
11:56 PM 55.4 °F 44.6 °F 67% 29.85 in 10.0 mi West 4.6 mph - N/A   Mostly Cloudy